Regional Weather Roundup
Issued by NWS Newport/Morehead, NC

Current Version | Previous Version | Text Only | Print | Product List | Glossary Off
Versions: 1 2 3 4 5 6 7 8 9 10 11 12 13 14 15 16 17 18 19 20 21 22 23 24 25 26 27 28 29 30 31 32 33 34 35 36 37 38 39 40 41 42 43 44 45 46 47 48 49 50
000 ASUS42 KMHX 182325 RWRMHX WEATHER ROUNDUP FOR EASTERN NORTH CAROLINA NATIONAL WEATHER SERVICE NEWPORT/MOREHEAD CITY NC 700 PM EDT FRI AUG 18 2017 NOTE: "FAIR" INDICATES FEW OR NO CLOUDS BELOW 12,000 FEET WITH NO SIGNIFICANT WEATHER AND/OR OBSTRUCTIONS TO VISIBILITY NCZ015>017-031-032-045>047-102-103-190000- NORTH COAST CITY SKY/WX TMP DP RH WIND PRES REMARKS EDENTON CLEAR 86 78 75 S10 29.85S ELIZABETH CITY CLOUDY 84 78 82 S8 29.85S KITTY HAWK CLOUDY 83 76 81 CALM 29.85S MANTEO CLOUDY 83 78 85 SW14 29.87S $$ NCZ045>047-081-094-103-104-190000- CENTRAL COAST CITY SKY/WX TMP DP RH WIND PRES REMARKS FRISCO CLOUDY 85 82 91 SW14 29.89S HX 102 $$ NCZ095-097-098-100-101-190000- SOUTHERN COAST CITY SKY/WX TMP DP RH WIND PRES REMARKS BEAUFORT CLEAR 85 83 94 SW17 29.89S HX 104 CEDAR ISLAND NOT AVBL JACKSONVILLE CLEAR 87 80 79 S9 29.87S HX 103 PINEY ISLAND CLEAR N/A N/A N/A S13 29.88S WILMINGTON MOSUNNY 89 76 65 SW9G20 29.89S HX 100 $$ NCZ011>013-027>030-043-044-078>080-089-090>093-098-190000- COASTAL PLAIN CITY SKY/WX TMP DP RH WIND PRES REMARKS AHOSKIE N/A 84 79 85 S7 29.83S CLINTON SUNNY 91 76 62 SW6 29.87R HX 103 ELIZABETHTOWN NOT AVBL GOLDSBORO SUNNY 92 77 60 SW7 29.84S HX 106 GREENVILLE SUNNY 90 79 70 S12 29.87R HX 105 HAVELOCK CLEAR 86 78 77 S15 29.89S KENANSVILLE MOSUNNY 90 75 62 CALM 29.87R HX 100 KINSTON MOSUNNY 93 75 55 MISG N/A HX 104 NEW BERN CLOUDY 86 79 79 S9 29.88S RICHLANDS CLOUDY 88 80 77 S9 29.88S HX 104 ROCKY MOUNT SUNNY 90 76 63 S7 29.84S HX 101 WASHINGTON CLEAR 87 80 79 S5 29.85S HX 102 WHITEVILLE SUNNY 88 78 71 S7 29.89S HX 102 $$ AMZ130-135-150-152-154-156-158-170-250-252-270-ANZ085-086-088-633-658-670-190000- MARINE OBSERVATIONS STATION/POSITION TIME TEMP WIND PRES WAVE SWELL AIR SEA DIR/SP/G HT/PER HT/PER (UTC) (F) (DEG/KT/KT) (MB) (FT/S) (FT/S) CHESAPEAKE LIGHT NOT AVBL 64 E VA BEACH 2150 80 78 190/ 16/ 19 1010.9 3/ 4 2/ 9 DUCK 2254 83 73 190/ 16/ 19 1010.3 2 E DUCK 2300 79 N/A 2/ 8 OREGON INLET 2248 82 86 190/ 15/ 17 1011.4 13E OREGON INLT 2248 81 N/A 3/ 8 2/ 8 HATTERAS CG 2254 84 85 210/ 9/ 14 1012.0 DIAMOND BUOY 2150 86 86 210/ 16/ 19 1012.0 3/ 5 2/ 9 CAPE LOOKOUT 2200 85 200/ 13/ 16 1012.1 BEAUFORT LAB 2254 85 82 210/ 12/ 18 1011.6 30 SE NEW RVR IN 2308 83 84 220/ 14/ 17 1012.7 30 SE NEW RVR IN 2243 84 N/A 3/ 5 27 SE WRIGHTSVLE 2308 84 84 200/ 16/ 21 1012.5 5 SE WRIGHTSVLE 2308 85 85 200/ 12/ 19 1012.5 225 S CAPE HAT 2150 84 85 210/ 10/ 12 1015.6 3/ 8 2/ 8 41 SE CHARLESTON 2240 85 86 210/ 14/ 16 1013.5 $$

USA.gov is the U.S. government's official web portal to all federal, state and local government web resources and services.